Year,Month,Day,Hour,Minute,Value (Times are PST for temperature in C)
2015,06,16,00,00,15.70
2015,06,16,00,01,15.70
2015,06,16,00,02,15.70
2015,06,16,00,03,15.70
2015,06,16,00,04,15.60
2015,06,16,00,05,15.60
2015,06,16,00,06,15.60
2015,06,16,00,07,15.60
2015,06,16,00,08,15.60
2015,06,16,00,09,15.50
2015,06,16,00,10,15.50
2015,06,16,00,11,15.50
2015,06,16,00,12,15.40
2015,06,16,00,13,15.40
2015,06,16,00,14,15.40
2015,06,16,00,15,15.40
2015,06,16,00,16,15.40
2015,06,16,00,17,15.40
2015,06,16,00,18,15.30
2015,06,16,00,19,15.30
2015,06,16,00,20,15.30
2015,06,16,00,21,15.30
2015,06,16,00,22,15.30
2015,06,16,00,23,15.20
2015,06,16,00,24,15.20
2015,06,16,00,25,15.20
2015,06,16,00,26,15.20
2015,06,16,00,27,15.10
2015,06,16,00,28,15.10
2015,06,16,00,29,15.10
2015,06,16,00,30,15.10
2015,06,16,00,31,15.10
2015,06,16,00,32,15.00
2015,06,16,00,33,15.00
2015,06,16,00,34,15.00
2015,06,16,00,35,15.00
2015,06,16,00,36,14.90
2015,06,16,00,37,14.90
2015,06,16,00,38,14.90
2015,06,16,00,39,14.90
2015,06,16,00,40,14.90
2015,06,16,00,41,14.80
2015,06,16,00,42,14.80
2015,06,16,00,43,14.80
2015,06,16,00,44,14.80
2015,06,16,00,45,14.70
2015,06,16,00,46,14.70
2015,06,16,00,47,14.70
2015,06,16,00,48,14.60
2015,06,16,00,49,14.60
2015,06,16,00,50,14.60
2015,06,16,00,51,14.60
2015,06,16,00,52,14.60
2015,06,16,00,53,14.50
2015,06,16,00,54,14.50
2015,06,16,00,55,14.50
2015,06,16,00,56,14.50
2015,06,16,00,57,14.50
2015,06,16,00,58,14.40
2015,06,16,00,59,14.40
2015,06,16,01,00,14.40
2015,06,16,01,01,14.40
2015,06,16,01,02,14.40
2015,06,16,01,03,14.40
2015,06,16,01,04,14.30
2015,06,16,01,05,14.30
2015,06,16,01,06,14.30
2015,06,16,01,07,14.30
2015,06,16,01,08,14.30
2015,06,16,01,09,14.20
2015,06,16,01,10,14.20
2015,06,16,01,11,14.20
2015,06,16,01,12,14.20
2015,06,16,01,13,14.20
2015,06,16,01,14,14.20
2015,06,16,01,15,14.20
2015,06,16,01,16,14.20
2015,06,16,01,17,14.10
2015,06,16,01,18,14.10
2015,06,16,01,19,14.10
2015,06,16,01,20,14.10
2015,06,16,01,21,14.10
2015,06,16,01,22,14.00
2015,06,16,01,23,14.00
2015,06,16,01,24,14.00
2015,06,16,01,25,14.00
2015,06,16,01,26,13.90
2015,06,16,01,27,13.90
2015,06,16,01,28,13.90
2015,06,16,01,29,13.90
2015,06,16,01,30,13.90
2015,06,16,01,31,13.80
2015,06,16,01,32,13.80
2015,06,16,01,33,13.80
2015,06,16,01,34,13.80
2015,06,16,01,35,13.70
2015,06,16,01,36,13.70
2015,06,16,01,37,13.70
2015,06,16,01,38,13.70
2015,06,16,01,39,13.60
2015,06,16,01,40,13.60
2015,06,16,01,41,13.60
2015,06,16,01,42,13.50
2015,06,16,01,43,13.50
2015,06,16,01,44,13.50
2015,06,16,01,45,13.40
2015,06,16,01,46,13.40
2015,06,16,01,47,13.40
2015,06,16,01,48,13.30
2015,06,16,01,49,13.30
2015,06,16,01,50,13.30
2015,06,16,01,51,13.30
2015,06,16,01,52,13.30
2015,06,16,01,53,13.30
2015,06,16,01,54,13.30
2015,06,16,01,55,13.20
2015,06,16,01,56,13.20
2015,06,16,01,57,13.20
2015,06,16,01,58,13.20
2015,06,16,01,59,13.20
2015,06,16,02,00,13.20
2015,06,16,02,01,13.20
2015,06,16,02,02,13.10
2015,06,16,02,03,13.10
2015,06,16,02,04,13.10
2015,06,16,02,05,13.10
2015,06,16,02,06,13.10
2015,06,16,02,07,13.00
2015,06,16,02,08,13.00
2015,06,16,02,09,13.00
2015,06,16,02,10,13.00
2015,06,16,02,11,12.90
2015,06,16,02,12,12.90
2015,06,16,02,13,12.90
2015,06,16,02,14,12.90
2015,06,16,02,15,12.90
2015,06,16,02,16,12.90
2015,06,16,02,17,12.90
2015,06,16,02,18,12.90
2015,06,16,02,19,12.90
2015,06,16,02,20,12.90
2015,06,16,02,21,12.90
2015,06,16,02,22,12.90
2015,06,16,02,23,12.80
2015,06,16,02,24,12.80
2015,06,16,02,25,12.80
2015,06,16,02,26,12.80
2015,06,16,02,27,12.80
2015,06,16,02,28,12.80
2015,06,16,02,29,12.70
2015,06,16,02,30,12.70
2015,06,16,02,31,12.70
2015,06,16,02,32,12.70
2015,06,16,02,33,12.70
2015,06,16,02,34,12.60
2015,06,16,02,35,12.60
2015,06,16,02,36,12.60
2015,06,16,02,37,12.60
2015,06,16,02,38,12.50
2015,06,16,02,39,12.50
2015,06,16,02,40,12.50
2015,06,16,02,41,12.50
2015,06,16,02,42,12.50
2015,06,16,02,43,12.40
2015,06,16,02,44,12.40
2015,06,16,02,45,12.40
2015,06,16,02,46,12.40
2015,06,16,02,47,12.40
2015,06,16,02,48,12.40
2015,06,16,02,49,12.30
2015,06,16,02,50,12.30
2015,06,16,02,51,12.30
2015,06,16,02,52,12.30
2015,06,16,02,53,12.30
2015,06,16,02,54,12.30
2015,06,16,02,55,12.20
2015,06,16,02,56,12.20
2015,06,16,02,57,12.20
2015,06,16,02,58,12.20
2015,06,16,02,59,12.20
2015,06,16,03,00,12.20
2015,06,16,03,01,12.20
2015,06,16,03,02,12.20
2015,06,16,03,03,12.20
2015,06,16,03,04,12.20
2015,06,16,03,05,12.20
2015,06,16,03,06,12.10
2015,06,16,03,07,12.10
2015,06,16,03,08,12.10
2015,06,16,03,09,12.10
2015,06,16,03,10,12.10
2015,06,16,03,11,12.10
2015,06,16,03,12,12.10
2015,06,16,03,13,12.10
2015,06,16,03,14,12.10
2015,06,16,03,15,12.10
2015,06,16,03,16,12.10
2015,06,16,03,17,12.10
2015,06,16,03,18,12.20
2015,06,16,03,19,12.30
2015,06,16,03,20,12.30
2015,06,16,03,21,12.30
2015,06,16,03,22,12.30
2015,06,16,03,23,12.30
2015,06,16,03,24,12.30
2015,06,16,03,25,12.30
2015,06,16,03,26,12.30
2015,06,16,03,27,12.30
2015,06,16,03,28,12.30
2015,06,16,03,29,12.30
2015,06,16,03,30,12.30
2015,06,16,03,31,12.30
2015,06,16,03,32,12.30
2015,06,16,03,33,12.30
2015,06,16,03,34,12.30
2015,06,16,03,35,12.30
2015,06,16,03,36,12.30
2015,06,16,03,37,12.30
2015,06,16,03,38,12.30
2015,06,16,03,39,12.30
2015,06,16,03,40,12.30
2015,06,16,03,41,12.40
2015,06,16,03,42,12.40
2015,06,16,03,43,12.50
2015,06,16,03,44,12.50
2015,06,16,03,45,12.60
2015,06,16,03,46,12.60
2015,06,16,03,47,12.60
2015,06,16,03,48,12.70
2015,06,16,03,49,12.70
2015,06,16,03,50,12.70
2015,06,16,03,51,12.80
2015,06,16,03,52,12.80
2015,06,16,03,53,12.90
2015,06,16,03,54,12.90
2015,06,16,03,55,12.90
2015,06,16,03,56,12.90
2015,06,16,03,57,12.90
2015,06,16,03,58,12.90
2015,06,16,03,59,12.90
2015,06,16,04,00,12.90
2015,06,16,04,01,12.90
2015,06,16,04,02,12.90
2015,06,16,04,03,12.90
2015,06,16,04,04,12.90
2015,06,16,04,05,12.90
2015,06,16,04,06,12.90
2015,06,16,04,07,12.90
2015,06,16,04,08,12.90
2015,06,16,04,09,12.90
2015,06,16,04,10,12.90
2015,06,16,04,11,12.90
2015,06,16,04,12,12.90
2015,06,16,04,13,12.90
2015,06,16,04,14,12.90
2015,06,16,04,15,12.90
2015,06,16,04,16,12.90
2015,06,16,04,17,12.90
2015,06,16,04,18,12.90
2015,06,16,04,19,12.90
2015,06,16,04,20,12.90
2015,06,16,04,21,12.80
2015,06,16,04,22,12.90
2015,06,16,04,23,12.90
2015,06,16,04,24,12.90
2015,06,16,04,25,12.90
2015,06,16,04,26,12.90
2015,06,16,04,27,12.90
2015,06,16,04,28,12.90
2015,06,16,04,29,12.90
2015,06,16,04,30,12.90
2015,06,16,04,31,12.80
2015,06,16,04,32,12.80
2015,06,16,04,33,12.80
2015,06,16,04,34,12.80
2015,06,16,04,35,12.80
2015,06,16,04,36,12.80
2015,06,16,04,37,12.80
2015,06,16,04,38,12.80
2015,06,16,04,39,12.80
2015,06,16,04,40,12.80
2015,06,16,04,41,12.80
2015,06,16,04,42,12.80
2015,06,16,04,43,12.80
2015,06,16,04,44,12.80
2015,06,16,04,45,12.80
2015,06,16,04,46,12.80
2015,06,16,04,47,12.80
2015,06,16,04,48,12.80
2015,06,16,04,49,12.80
2015,06,16,04,50,12.80
2015,06,16,04,51,12.80
2015,06,16,04,52,12.80
2015,06,16,04,53,12.80
2015,06,16,04,54,12.80
2015,06,16,04,55,12.80
2015,06,16,04,56,12.80
2015,06,16,04,57,12.80
2015,06,16,04,58,12.70
2015,06,16,04,59,12.70
2015,06,16,05,00,12.70
2015,06,16,05,01,12.70
2015,06,16,05,02,12.60
2015,06,16,05,03,12.60
2015,06,16,05,04,12.60
2015,06,16,05,05,12.60
2015,06,16,05,06,12.60
2015,06,16,05,07,12.50
2015,06,16,05,08,12.50
2015,06,16,05,09,12.50
2015,06,16,05,10,12.40
2015,06,16,05,11,12.40
2015,06,16,05,12,12.40
2015,06,16,05,13,12.40
2015,06,16,05,14,12.40
2015,06,16,05,15,12.40
2015,06,16,05,16,12.40
2015,06,16,05,17,12.40
2015,06,16,05,18,12.50
2015,06,16,05,19,12.50
2015,06,16,05,20,12.50
2015,06,16,05,21,12.50
2015,06,16,05,22,12.50
2015,06,16,05,23,12.50
2015,06,16,05,24,12.50
2015,06,16,05,25,12.50
2015,06,16,05,26,12.50
2015,06,16,05,27,12.50
2015,06,16,05,28,12.50
2015,06,16,05,29,12.50
2015,06,16,05,30,12.60
2015,06,16,05,31,12.60
2015,06,16,05,32,12.60
2015,06,16,05,33,12.60
2015,06,16,05,34,12.60
2015,06,16,05,35,12.60
2015,06,16,05,36,12.60
2015,06,16,05,37,12.60
2015,06,16,05,38,12.60
2015,06,16,05,39,12.60
2015,06,16,05,40,12.60
2015,06,16,05,41,12.60
2015,06,16,05,42,12.60
2015,06,16,05,43,12.70
2015,06,16,05,44,12.70
2015,06,16,05,45,12.60
2015,06,16,05,46,12.60
2015,06,16,05,47,12.60
2015,06,16,05,48,12.60
2015,06,16,05,49,12.60
2015,06,16,05,50,12.60
2015,06,16,05,51,12.60
2015,06,16,05,52,12.50
2015,06,16,05,53,12.50
2015,06,16,05,54,12.40
2015,06,16,05,55,12.40
2015,06,16,05,56,12.30
2015,06,16,05,57,12.30
2015,06,16,05,58,12.30
2015,06,16,05,59,12.20
2015,06,16,06,00,12.20
2015,06,16,06,01,12.20
2015,06,16,06,02,12.20
2015,06,16,06,03,12.10
2015,06,16,06,04,12.10
2015,06,16,06,05,12.20
2015,06,16,06,06,12.20
2015,06,16,06,07,12.20
2015,06,16,06,08,12.20
2015,06,16,06,09,12.20
2015,06,16,06,10,12.20
2015,06,16,06,11,12.20
2015,06,16,06,12,12.20
2015,06,16,06,13,12.20
2015,06,16,06,14,12.20
2015,06,16,06,15,12.20
2015,06,16,06,16,12.10
2015,06,16,06,17,12.10
2015,06,16,06,18,12.10
2015,06,16,06,19,12.00
2015,06,16,06,20,12.00
2015,06,16,06,21,12.00
2015,06,16,06,22,11.90
2015,06,16,06,23,11.90
2015,06,16,06,24,11.90
2015,06,16,06,25,11.90
2015,06,16,06,26,11.80
2015,06,16,06,27,11.80
2015,06,16,06,28,11.80
2015,06,16,06,29,11.80
2015,06,16,06,30,11.80
2015,06,16,06,31,11.80
2015,06,16,06,32,11.80
2015,06,16,06,33,11.90
2015,06,16,06,34,11.90
2015,06,16,06,35,11.90
2015,06,16,06,36,12.00
2015,06,16,06,37,12.00
2015,06,16,06,38,12.00
2015,06,16,06,39,12.10
2015,06,16,06,40,12.10
2015,06,16,06,41,12.10
2015,06,16,06,42,12.10
2015,06,16,06,43,12.10
2015,06,16,06,44,12.10
2015,06,16,06,45,12.10
2015,06,16,06,46,12.10
2015,06,16,06,47,12.10
2015,06,16,06,48,12.10
2015,06,16,06,49,12.10
2015,06,16,06,50,12.10
2015,06,16,06,51,12.10
2015,06,16,06,52,12.20
2015,06,16,06,53,12.20
2015,06,16,06,54,12.20
2015,06,16,06,55,12.20
2015,06,16,06,56,12.20
2015,06,16,06,57,12.20
2015,06,16,06,58,12.20
2015,06,16,06,59,12.20
2015,06,16,07,00,12.20
2015,06,16,07,01,12.20
2015,06,16,07,02,12.20
2015,06,16,07,03,12.30
2015,06,16,07,04,12.30
2015,06,16,07,05,12.30
2015,06,16,07,06,12.30
2015,06,16,07,07,12.30
2015,06,16,07,08,12.30
2015,06,16,07,09,12.30
2015,06,16,07,10,12.40
2015,06,16,07,11,12.40
2015,06,16,07,12,12.40
2015,06,16,07,13,12.40
2015,06,16,07,14,12.40
2015,06,16,07,15,12.40
2015,06,16,07,16,12.50
2015,06,16,07,17,12.50
2015,06,16,07,18,12.50
2015,06,16,07,19,12.50
2015,06,16,07,20,12.60
2015,06,16,07,21,12.60
2015,06,16,07,22,12.60
2015,06,16,07,23,12.60
2015,06,16,07,24,12.60
2015,06,16,07,25,12.70
2015,06,16,07,26,12.70
2015,06,16,07,27,12.70
2015,06,16,07,28,12.80
2015,06,16,07,29,12.80
2015,06,16,07,30,12.80
2015,06,16,07,31,12.80
2015,06,16,07,32,12.80
2015,06,16,07,33,12.90
2015,06,16,07,34,12.90
2015,06,16,07,35,12.90
2015,06,16,07,36,12.90
2015,06,16,07,37,13.00
2015,06,16,07,38,13.00
2015,06,16,07,39,13.00
2015,06,16,07,40,12.90
2015,06,16,07,41,12.90
2015,06,16,07,42,13.00
2015,06,16,07,43,13.00
2015,06,16,07,44,13.00
2015,06,16,07,45,13.00
2015,06,16,07,46,13.00
2015,06,16,07,47,13.00
2015,06,16,07,48,13.10
2015,06,16,07,49,13.10
2015,06,16,07,50,13.20
2015,06,16,07,51,13.30
2015,06,16,07,52,13.30
2015,06,16,07,53,13.40
2015,06,16,07,54,13.40
2015,06,16,07,55,13.40
2015,06,16,07,56,13.40
2015,06,16,07,57,13.40
2015,06,16,07,58,13.50
2015,06,16,07,59,13.50
2015,06,16,08,00,13.60
2015,06,16,08,01,13.60
2015,06,16,08,02,13.60
2015,06,16,08,03,13.70
2015,06,16,08,04,13.70
2015,06,16,08,05,13.70
2015,06,16,08,06,13.80
2015,06,16,08,07,13.80
2015,06,16,08,08,13.80
2015,06,16,08,09,13.80
2015,06,16,08,10,13.90
2015,06,16,08,11,13.90
2015,06,16,08,12,13.90
2015,06,16,08,13,13.90
2015,06,16,08,14,13.90
2015,06,16,08,15,13.90
2015,06,16,08,16,13.90
2015,06,16,08,17,13.90
2015,06,16,08,18,13.90
2015,06,16,08,19,13.90
2015,06,16,08,20,14.00
2015,06,16,08,21,14.00
2015,06,16,08,22,14.10
2015,06,16,08,23,14.20
2015,06,16,08,24,14.30
2015,06,16,08,25,14.40
2015,06,16,08,26,14.50
2015,06,16,08,27,14.50
2015,06,16,08,28,14.60
2015,06,16,08,29,14.60
2015,06,16,08,30,14.60
2015,06,16,08,31,14.60
2015,06,16,08,32,14.60
2015,06,16,08,33,14.60
2015,06,16,08,34,14.60
2015,06,16,08,35,14.60
2015,06,16,08,36,14.60
2015,06,16,08,37,14.60
2015,06,16,08,38,14.60
2015,06,16,08,39,14.70
2015,06,16,08,40,14.70
2015,06,16,08,41,14.80
2015,06,16,08,42,14.80
2015,06,16,08,43,14.90
2015,06,16,08,44,14.90
2015,06,16,08,45,14.90
2015,06,16,08,46,15.00
2015,06,16,08,47,15.00
2015,06,16,08,48,15.10
2015,06,16,08,49,15.20
2015,06,16,08,50,15.20
2015,06,16,08,51,15.20
2015,06,16,08,52,15.20
2015,06,16,08,53,15.20
2015,06,16,08,54,15.20
2015,06,16,08,55,15.20
2015,06,16,08,56,15.20
2015,06,16,08,57,15.30
2015,06,16,08,58,15.40
2015,06,16,08,59,15.60
2015,06,16,09,00,15.70
2015,06,16,09,01,15.80
2015,06,16,09,02,15.90
2015,06,16,09,03,16.00
2015,06,16,09,04,16.10
2015,06,16,09,05,16.20
2015,06,16,09,06,16.20
2015,06,16,09,07,16.20
2015,06,16,09,08,16.20
2015,06,16,09,09,16.30
2015,06,16,09,10,16.30
2015,06,16,09,11,16.40
2015,06,16,09,12,16.50
2015,06,16,09,13,16.50
2015,06,16,09,14,16.60
2015,06,16,09,15,16.60
2015,06,16,09,16,16.60
2015,06,16,09,17,16.70
2015,06,16,09,18,16.70
2015,06,16,09,19,16.70
2015,06,16,09,20,16.80
2015,06,16,09,21,16.80
2015,06,16,09,22,16.80
2015,06,16,09,23,16.80
2015,06,16,09,24,16.80
2015,06,16,09,25,16.80
2015,06,16,09,26,16.80
2015,06,16,09,27,16.80
2015,06,16,09,28,16.70
2015,06,16,09,29,16.60
2015,06,16,09,30,16.60
2015,06,16,09,31,16.60
2015,06,16,09,32,16.60
2015,06,16,09,33,16.70
2015,06,16,09,34,16.70
2015,06,16,09,35,16.70
2015,06,16,09,36,16.80
2015,06,16,09,37,16.80
2015,06,16,09,38,16.80
2015,06,16,09,39,16.90
2015,06,16,09,40,17.00
2015,06,16,09,41,17.10
2015,06,16,09,42,17.20
2015,06,16,09,43,17.40
2015,06,16,09,44,17.40
2015,06,16,09,45,17.40
2015,06,16,09,46,17.40
2015,06,16,09,47,17.30
2015,06,16,09,48,17.30
2015,06,16,09,49,17.20
2015,06,16,09,50,17.20
2015,06,16,09,51,17.10
2015,06,16,09,52,17.10
2015,06,16,09,53,17.10
2015,06,16,09,54,17.00
2015,06,16,09,55,17.00
2015,06,16,09,56,17.00
2015,06,16,09,57,17.00
2015,06,16,09,58,17.10
2015,06,16,09,59,17.10
2015,06,16,10,00,17.20
2015,06,16,10,01,17.30
2015,06,16,10,02,17.30
2015,06,16,10,03,17.30
2015,06,16,10,04,17.40
2015,06,16,10,05,17.40
2015,06,16,10,06,17.40
2015,06,16,10,07,17.40
2015,06,16,10,08,17.40
2015,06,16,10,09,17.50
2015,06,16,10,10,17.60
2015,06,16,10,11,17.60
2015,06,16,10,12,17.70
2015,06,16,10,13,17.70
2015,06,16,10,14,17.80
2015,06,16,10,15,17.90
2015,06,16,10,16,18.00
2015,06,16,10,17,18.20
2015,06,16,10,18,18.20
2015,06,16,10,19,18.30
2015,06,16,10,20,18.40
2015,06,16,10,21,18.50
2015,06,16,10,22,18.60
2015,06,16,10,23,18.70
2015,06,16,10,24,18.80
2015,06,16,10,25,18.90
2015,06,16,10,26,18.90
2015,06,16,10,27,19.00
2015,06,16,10,28,19.00
2015,06,16,10,29,19.00
2015,06,16,10,30,18.90
2015,06,16,10,31,19.00
2015,06,16,10,32,19.10
2015,06,16,10,33,19.20
2015,06,16,10,34,19.30
2015,06,16,10,35,19.40
2015,06,16,10,36,19.40
2015,06,16,10,37,19.40
2015,06,16,10,38,19.40
2015,06,16,10,39,19.30
2015,06,16,10,40,19.30
2015,06,16,10,41,19.20
2015,06,16,10,42,19.20
2015,06,16,10,43,19.20
2015,06,16,10,44,19.30
2015,06,16,10,45,19.30
2015,06,16,10,46,19.40
2015,06,16,10,47,19.40
2015,06,16,10,48,19.50
2015,06,16,10,49,19.50
2015,06,16,10,50,19.50
2015,06,16,10,51,19.50
2015,06,16,10,52,19.50
2015,06,16,10,53,19.60
2015,06,16,10,54,19.60
2015,06,16,10,55,19.60
2015,06,16,10,56,19.60
2015,06,16,10,57,19.60
2015,06,16,10,58,19.60
2015,06,16,10,59,19.70
2015,06,16,11,00,19.80
2015,06,16,11,01,19.90
2015,06,16,11,02,20.00
2015,06,16,11,03,20.10
2015,06,16,11,04,20.20
2015,06,16,11,05,20.20
2015,06,16,11,06,20.30
2015,06,16,11,07,20.30
2015,06,16,11,08,20.30
2015,06,16,11,09,20.30
2015,06,16,11,10,20.30
2015,06,16,11,11,20.30
2015,06,16,11,12,20.30
2015,06,16,11,13,20.40
2015,06,16,11,14,20.50
2015,06,16,11,15,20.50
2015,06,16,11,16,20.50
2015,06,16,11,17,20.50
2015,06,16,11,18,20.50
2015,06,16,11,19,20.60
2015,06,16,11,20,20.60
2015,06,16,11,21,20.60
2015,06,16,11,22,20.60
2015,06,16,11,23,20.60
2015,06,16,11,24,20.60
2015,06,16,11,25,20.60
2015,06,16,11,26,20.60
2015,06,16,11,27,20.60
2015,06,16,11,28,20.60
2015,06,16,11,29,20.60
2015,06,16,11,30,20.60
2015,06,16,11,31,20.50
2015,06,16,11,32,20.50
2015,06,16,11,33,20.50
2015,06,16,11,34,20.50
2015,06,16,11,35,20.50
2015,06,16,11,36,20.50
2015,06,16,11,37,20.60
2015,06,16,11,38,20.60
2015,06,16,11,39,20.60
2015,06,16,11,40,20.70
2015,06,16,11,41,20.70
2015,06,16,11,42,20.80
2015,06,16,11,43,20.90
2015,06,16,11,44,21.00
2015,06,16,11,45,21.10
2015,06,16,11,46,21.20
2015,06,16,11,47,21.40
2015,06,16,11,48,21.50
2015,06,16,11,49,21.50
2015,06,16,11,50,21.50
2015,06,16,11,51,21.50
2015,06,16,11,52,21.50
2015,06,16,11,53,21.60
2015,06,16,11,54,21.50
2015,06,16,11,55,21.50
2015,06,16,11,56,21.40
2015,06,16,11,57,21.50
2015,06,16,11,58,21.50
2015,06,16,11,59,21.60
2015,06,16,12,00,21.70
2015,06,16,12,01,21.80
2015,06,16,12,02,21.80
2015,06,16,12,03,21.90
2015,06,16,12,04,21.90
2015,06,16,12,05,22.00
2015,06,16,12,06,22.00
2015,06,16,12,07,22.00
2015,06,16,12,08,22.00
2015,06,16,12,09,22.00
2015,06,16,12,10,22.00
2015,06,16,12,11,22.00
2015,06,16,12,12,22.10
2015,06,16,12,13,22.00
2015,06,16,12,14,22.00
2015,06,16,12,15,22.00
2015,06,16,12,16,22.00
2015,06,16,12,17,22.10
2015,06,16,12,18,22.10
2015,06,16,12,19,22.10
2015,06,16,12,20,22.10
2015,06,16,12,21,22.20
2015,06,16,12,22,22.30
2015,06,16,12,23,22.30
2015,06,16,12,24,22.20
2015,06,16,12,25,22.20
2015,06,16,12,26,22.10
2015,06,16,12,27,22.10
2015,06,16,12,28,22.00
2015,06,16,12,29,22.00
2015,06,16,12,30,22.00
2015,06,16,12,31,22.10
2015,06,16,12,32,22.20
2015,06,16,12,33,22.20
2015,06,16,12,34,22.30
2015,06,16,12,35,22.30
2015,06,16,12,36,22.30
2015,06,16,12,37,22.30
2015,06,16,12,38,22.40
2015,06,16,12,39,22.30
2015,06,16,12,40,22.20
2015,06,16,12,41,22.20
2015,06,16,12,42,22.20
2015,06,16,12,43,22.20
2015,06,16,12,44,22.20
2015,06,16,12,45,22.20
2015,06,16,12,46,22.20
2015,06,16,12,47,22.30
2015,06,16,12,48,22.40
2015,06,16,12,49,22.40
2015,06,16,12,50,22.40
2015,06,16,12,51,22.40
2015,06,16,12,52,22.50
2015,06,16,12,53,22.60
2015,06,16,12,54,22.60
2015,06,16,12,55,22.50
2015,06,16,12,56,22.50
2015,06,16,12,57,22.40
2015,06,16,12,58,22.40
2015,06,16,12,59,22.40
2015,06,16,13,00,22.50
2015,06,16,13,01,22.60
2015,06,16,13,02,22.60
2015,06,16,13,03,22.60
2015,06,16,13,04,22.60
2015,06,16,13,05,22.50
2015,06,16,13,06,22.40
2015,06,16,13,07,22.40
2015,06,16,13,08,22.40
2015,06,16,13,09,22.40
2015,06,16,13,10,22.40
2015,06,16,13,11,22.40
2015,06,16,13,12,22.40
2015,06,16,13,13,22.50
2015,06,16,13,14,22.50
2015,06,16,13,15,22.50
2015,06,16,13,16,22.50
2015,06,16,13,17,22.50
2015,06,16,13,18,22.50
2015,06,16,13,19,22.50
2015,06,16,13,20,22.40
2015,06,16,13,21,22.40
2015,06,16,13,22,22.40
2015,06,16,13,23,22.40
2015,06,16,13,24,22.50
2015,06,16,13,25,22.50
2015,06,16,13,26,22.50
2015,06,16,13,27,22.40
2015,06,16,13,28,22.30
2015,06,16,13,29,22.40
2015,06,16,13,30,22.50
2015,06,16,13,31,22.60
2015,06,16,13,32,22.50
2015,06,16,13,33,22.50
2015,06,16,13,34,22.60
2015,06,16,13,35,22.60
2015,06,16,13,36,22.70
2015,06,16,13,37,22.80
2015,06,16,13,38,22.80
2015,06,16,13,39,22.70
2015,06,16,13,40,22.70
2015,06,16,13,41,22.70
2015,06,16,13,42,22.70
2015,06,16,13,43,22.70
2015,06,16,13,44,22.60
2015,06,16,13,45,22.60
2015,06,16,13,46,22.60
2015,06,16,13,47,22.60
2015,06,16,13,48,22.60
2015,06,16,13,49,22.60
2015,06,16,13,50,22.70
2015,06,16,13,51,22.70
2015,06,16,13,52,22.80
2015,06,16,13,53,22.80
2015,06,16,13,54,22.80
2015,06,16,13,55,22.90
2015,06,16,13,56,22.90
2015,06,16,13,57,22.80
2015,06,16,13,58,22.80
2015,06,16,13,59,22.80
2015,06,16,14,00,22.80
2015,06,16,14,01,22.70
2015,06,16,14,02,22.70
2015,06,16,14,03,22.70
2015,06,16,14,04,22.70
2015,06,16,14,05,22.70
2015,06,16,14,06,22.70
2015,06,16,14,07,22.70
2015,06,16,14,08,22.80
2015,06,16,14,09,22.80
2015,06,16,14,10,22.90
2015,06,16,14,11,22.90
2015,06,16,14,12,23.00
2015,06,16,14,13,23.10
2015,06,16,14,14,23.20
2015,06,16,14,15,23.30
2015,06,16,14,16,23.30
2015,06,16,14,17,23.30
2015,06,16,14,18,23.30
2015,06,16,14,19,23.20
2015,06,16,14,20,23.30
2015,06,16,14,21,23.30
2015,06,16,14,22,23.40
2015,06,16,14,23,23.50
2015,06,16,14,24,23.40
2015,06,16,14,25,23.30
2015,06,16,14,26,23.30
2015,06,16,14,27,23.20
2015,06,16,14,28,23.20
2015,06,16,14,29,23.20
2015,06,16,14,30,23.10
2015,06,16,14,31,23.10
2015,06,16,14,32,23.10
2015,06,16,14,33,23.20
2015,06,16,14,34,23.20
2015,06,16,14,35,23.30
2015,06,16,14,36,23.30
2015,06,16,14,37,23.40
2015,06,16,14,38,23.30
2015,06,16,14,39,23.30
2015,06,16,14,40,23.30
2015,06,16,14,41,23.20
2015,06,16,14,42,23.20
2015,06,16,14,43,23.20
2015,06,16,14,44,23.20
2015,06,16,14,45,23.20
2015,06,16,14,46,23.20
2015,06,16,14,47,23.30
2015,06,16,14,48,23.30
2015,06,16,14,49,23.20
2015,06,16,14,50,23.20
2015,06,16,14,51,23.20
2015,06,16,14,52,23.20
2015,06,16,14,53,23.20
2015,06,16,14,54,23.20
2015,06,16,14,55,23.20
2015,06,16,14,56,23.20
2015,06,16,14,57,23.20
2015,06,16,14,58,23.30
2015,06,16,14,59,23.30
2015,06,16,15,00,23.30
2015,06,16,15,01,23.30
2015,06,16,15,02,23.30
2015,06,16,15,03,23.30
2015,06,16,15,04,23.20
2015,06,16,15,05,23.20
2015,06,16,15,06,23.20
2015,06,16,15,07,23.10
2015,06,16,15,08,23.10
2015,06,16,15,09,23.10
2015,06,16,15,10,23.20
2015,06,16,15,11,23.30
2015,06,16,15,12,23.30
2015,06,16,15,13,23.30
2015,06,16,15,14,23.30
2015,06,16,15,15,23.20
2015,06,16,15,16,23.20
2015,06,16,15,17,23.20
2015,06,16,15,18,23.20
2015,06,16,15,19,23.20
2015,06,16,15,20,23.10
2015,06,16,15,21,23.00
2015,06,16,15,22,23.00
2015,06,16,15,23,22.90
2015,06,16,15,24,22.80
2015,06,16,15,25,22.70
2015,06,16,15,26,22.60
2015,06,16,15,27,22.60
2015,06,16,15,28,22.60
2015,06,16,15,29,22.60
2015,06,16,15,30,22.60
2015,06,16,15,31,22.50
2015,06,16,15,32,22.40
2015,06,16,15,33,22.40
2015,06,16,15,34,22.30
2015,06,16,15,35,22.20
2015,06,16,15,36,22.30
2015,06,16,15,37,22.30
2015,06,16,15,38,22.30
2015,06,16,15,39,22.30
2015,06,16,15,40,22.20
2015,06,16,15,41,22.20
2015,06,16,15,42,22.10
2015,06,16,15,43,22.00
2015,06,16,15,44,22.00
2015,06,16,15,45,22.00
2015,06,16,15,46,22.00
2015,06,16,15,47,22.00
2015,06,16,15,48,21.90
2015,06,16,15,49,21.80
2015,06,16,15,50,21.80
2015,06,16,15,51,21.80
2015,06,16,15,52,21.70
2015,06,16,15,53,21.70
2015,06,16,15,54,21.70
2015,06,16,15,55,21.80
2015,06,16,15,56,21.80
2015,06,16,15,57,21.80
2015,06,16,15,58,21.80
2015,06,16,15,59,21.80
2015,06,16,16,00,21.80
2015,06,16,16,01,21.80
2015,06,16,16,02,21.80
2015,06,16,16,03,21.80
2015,06,16,16,04,21.80
2015,06,16,16,05,21.80
2015,06,16,16,06,21.80
2015,06,16,16,07,21.80
2015,06,16,16,08,21.80
2015,06,16,16,09,21.70
2015,06,16,16,10,21.70
2015,06,16,16,11,21.70
2015,06,16,16,12,21.70
2015,06,16,16,13,21.70
2015,06,16,16,14,21.70
2015,06,16,16,15,21.80
2015,06,16,16,16,21.80
2015,06,16,16,17,21.80
2015,06,16,16,18,21.70
2015,06,16,16,19,21.70
2015,06,16,16,20,21.70
2015,06,16,16,21,21.60
2015,06,16,16,22,21.50
2015,06,16,16,23,21.50
2015,06,16,16,24,21.50
2015,06,16,16,25,21.50
2015,06,16,16,26,21.50
2015,06,16,16,27,21.60
2015,06,16,16,28,21.60
2015,06,16,16,29,21.60
2015,06,16,16,30,21.60
2015,06,16,16,31,21.70
2015,06,16,16,32,21.70
2015,06,16,16,33,21.90
2015,06,16,16,34,21.90
2015,06,16,16,35,21.90
2015,06,16,16,36,21.90
2015,06,16,16,37,22.00
2015,06,16,16,38,22.00
2015,06,16,16,39,22.10
2015,06,16,16,40,22.20
2015,06,16,16,41,22.20
2015,06,16,16,42,22.20
2015,06,16,16,43,22.10
2015,06,16,16,44,21.90
2015,06,16,16,45,21.80
2015,06,16,16,46,21.70
2015,06,16,16,47,21.50
2015,06,16,16,48,21.40
2015,06,16,16,49,21.40
2015,06,16,16,50,21.30
2015,06,16,16,51,21.30
2015,06,16,16,52,21.20
2015,06,16,16,53,21.10
2015,06,16,16,54,21.10
2015,06,16,16,55,21.00
2015,06,16,16,56,21.00
2015,06,16,16,57,20.90
2015,06,16,16,58,20.90
2015,06,16,16,59,20.90
2015,06,16,17,00,20.90
2015,06,16,17,01,21.00
2015,06,16,17,02,21.00
2015,06,16,17,03,21.10
2015,06,16,17,04,21.10
2015,06,16,17,05,21.00
2015,06,16,17,06,21.00
2015,06,16,17,07,20.90
2015,06,16,17,08,20.90
2015,06,16,17,09,20.90
2015,06,16,17,10,21.00
2015,06,16,17,11,21.00
2015,06,16,17,12,20.90
2015,06,16,17,13,20.90
2015,06,16,17,14,20.90
2015,06,16,17,15,20.90
2015,06,16,17,16,20.80
2015,06,16,17,17,20.80
2015,06,16,17,18,20.60
2015,06,16,17,19,20.50